JP3QZN-13 Weather Reports


time (UTC)temp
C
wind
direction
speed
KPH
gust
KPH
rain 1hr
cm
rain 24hr
cm
rain mn
cm
humidity
%
barometer
mb
20260508090023 21 315 3.2 0.0 0.00 0.00 0.00 56 1009.4
20260508083022 22 292 0.0 0.0 0.00 0.00 0.00 52 1009.3
20260508070000 22 270 4.8 0.0 0.00 0.00 0.00 52 1008.8
20260508063030 23 292 16.1 0.0 0.00 0.00 0.00 51 1008.8
20260508063001 23 202 8.0 0.0 0.00 0.00 0.00 51 1008.8
20260508060029 24 247 16.1 0.0 0.00 0.00 0.00 52 1008.9
20260508053028 25 270 12.9 0.0 0.00 0.00 0.00 51 1009.0
20260508050027 25 247 16.1 0.0 0.00 0.00 0.00 52 1009.4
20260508043026 25 180 14.5 0.0 0.00 0.00 0.00 52 1009.5
20260508042755 25 270 6.4 0.0 0.00 0.00 0.00 52 1009.6
20260508040026 25 225 12.9 0.0 0.00 0.00 0.00 54 1009.7
20260508033025 25 202 6.4 0.0 0.00 0.00 0.00 53 1009.8
20260508030024 25 247 4.8 0.0 0.00 0.00 0.00 54 1009.8
20260508023023 26 247 1.6 0.0 0.00 0.00 0.00 54 1010.4
20260508020023 25 202 4.8 0.0 0.00 0.00 0.00 57 1010.6
20260508013022 25 225 3.2 0.0 0.00 0.00 0.00 60 1010.3
20260508010021 25 225 8.0 0.0 0.00 0.00 0.00 60 1010.5
20260508003021 25 247 11.3 0.0 0.00 0.00 0.00 63 1010.4
20260508000020 23 157 1.6 0.0 0.00 0.00 0.00 70 1010.7
20260507233019 23 247 0.0 0.0 0.00 0.00 0.00 72 1010.8
20260507230018 21 292 1.6 0.0 0.00 0.00 0.00 75 1010.9
20260507220017 20 135 0.0 0.0 0.00 0.00 0.00 76 1010.3
20260507213016 20 135 0.0 0.0 0.00 0.00 0.00 76 1010.5
20260507210016 20 67 0.0 0.0 0.00 0.00 0.00 76 1010.3
20260507200014 19 135 0.0 0.0 0.00 0.00 0.00 76 1010.5
20260507193013 20 112 0.0 0.0 0.00 0.00 0.00 76 1010.4
20260507190013 20 135 0.0 0.0 0.00 0.00 0.00 76 1010.7
20260507183012 20 90 0.0 0.0 0.00 0.00 0.00 76 1010.7
20260507180011 20 135 0.0 0.0 0.00 0.00 0.00 76 1010.9
20260507173010 20 112 0.0 0.0 0.00 0.00 0.00 75 1011.0
20260507170010 20 112 0.0 0.0 0.00 0.00 0.00 75 1011.0
20260507163009 20 0 0.0 0.0 0.00 0.00 0.00 73 1011.6
20260507160008 20 0 0.0 0.0 0.00 0.00 0.00 73 1011.9
20260507153007 20 337 0.0 0.0 0.00 0.00 0.00 72 1012.2
20260507150006 20 315 0.0 0.0 0.00 0.00 0.00 72 1012.6
20260507143005 20 22 0.0 0.0 0.00 0.00 0.00 71 1012.6
20260507140006 21 337 0.0 0.0 0.00 0.00 0.00 71 1012.6
20260507133004 21 315 0.0 0.0 0.00 0.00 0.00 71 1012.7
20260507130003 21 315 3.2 0.0 0.00 0.00 0.00 71 1013.0
20260507123002 21 337 1.6 0.0 0.00 0.00 0.00 70 1013.0
20260507120001 21 292 6.4 0.0 0.00 0.00 0.00 69 1013.0
20260507113000 22 292 1.6 0.0 0.00 0.00 0.00 69 1012.8
20260507110029 22 315 4.8 0.0 0.00 0.00 0.00 67 1012.9
20260507103028 22 292 4.8 0.0 0.00 0.00 0.00 65 1012.6
20260507093026 23 292 12.9 0.0 0.00 0.00 0.00 61 1012.2